Regional Weather Roundup
Issued by NWS

Home | Current Version | Previous Version | Text Only | Print | Product List | Glossary Off
Versions: 1 2 3 4 5 6 7 8 9 10 11 12 13 14 15 16 17 18 19 20 21 22 23 24 25 26 27 28 29 30 31 32 33 34 35 36 37 38 39 40 41 42 43 44 45 46 47 48

000
ASUS43 KDMX 280607
RWRIA

WEATHER ROUNDUP FOR IOWA
NATIONAL WEATHER SERVICE DES MOINES IA
100 AM CDT THU MAY 28 2015

NOTE: "FAIR" INDICATES FEW OR NO CLOUDS BELOW 12,000 FEET WITH NO
SIGNIFICANT WEATHER AND/OR OBSTRUCTIONS TO VISIBILITY.

* - THESE STATIONS ARE NOT NWS STATIONS...THUS NOT UNDER NWS
QUALITY CONTROL.  THEY ALSO DO NOT REPORT WEATHER SUCH
AS PRECIPITATION OR FOG.

IAZ001>003-012>014-020>022-031>034-043>046-280700-
   NORTHWEST IOWA

CITY           SKY/WX    TMP DP  RH WIND       PRES   REMARKS
CARROLL *      CLOUDY    64  55  72 SW7       30.09S
CHEROKEE *     CLEAR     57  56  97 CALM      30.07S
DENISON *      CLEAR     66  54  63 CALM      30.08R
LE MARS *      CLEAR     64  52  63 SE3       30.07R
ORANGE CITY *  CLEAR     64  52  63 S3        30.06S
SHELDON *      CLEAR     61  54  77 S6        30.05S
SIOUX CITY     MOCLDY    64  51  62 SE6       30.06R
6HR MIN TEMP:  62; 6HR MAX TEMP:  82;

SPENCER        CLEAR     64  54  69 S9        30.07S
6HR MIN TEMP:  63; 6HR MAX TEMP:  83;

STORM LAKE *   CLEAR     64  52  63 S6        30.09S
$$

IAZ055>058-069>071-079>083-090>094-280700-
   SOUTHWEST IOWA

CITY           SKY/WX    TMP DP  RH WIND       PRES   REMARKS
ATLANTIC *     PTCLDY    61  55  82 CALM      30.10S
AUDUBON *      CLEAR     59  55  88 CALM      30.12R
CLARINDA *     CLEAR     59  59 100 CALM      30.12S
COUNCIL BLFS * CLEAR     64  54  68 SE6       30.09F
CRESTON *      CLEAR     64  55  72 S6        30.11S
HARLAN  *      CLEAR     59  59 100 CALM      30.13S
LAMONI         MOCLDY    70  57  63 S6        30.12S
6HR MIN TEMP:  70; 6HR MAX TEMP:  80;

RED OAK *      CLEAR     61  57  88 CALM      30.10S
SHENANDOAH *   CLEAR     63  57  82 CALM      30.10S
$$

IAZ047>049-059>061-072>074-084-280700-
   CENTRAL IOWA

CITY           SKY/WX    TMP DP  RH WIND       PRES   REMARKS
AMES           PTCLDY    62  58  86 CALM      30.10S
6HR MIN TEMP:  61; 6HR MAX TEMP:  77;

ANKENY *       CLEAR     64  61  88 CALM      30.10S
CHARITON *       N/A     63  59  88 SE5       30.12S
DES MOINES     MOCLDY    67  58  72 S7        30.11R
6HR MIN TEMP:  67; 6HR MAX TEMP:  81;

GRINNELL*      PTCLDY    64  57  77 S8        30.13S
KNOXVILLE *    CLEAR     64  57  77 S7        30.10F
MARSHALLTOWN   CLEAR     63  56  78 S6        30.11R
6HR MIN TEMP:  63; 6HR MAX TEMP:  77;

PELLA *        PTCLDY    63  61  93 SE5       30.13F
PERRY *          N/A     64  59  82 S6        30.10R
$$

IAZ004>006-015-016-023>025-035-036-280700-
   NORTH CENTRAL IOWA

CITY           SKY/WX    TMP DP  RH WIND       PRES   REMARKS
ALGONA *       CLEAR     64  57  77 S7        30.08S
CLARION *      CLEAR     64 N/A N/A S12       30.10R
ESTHERVILLE    CLEAR     61  55  81 S8        30.07R
6HR MIN TEMP:  61; 6HR MAX TEMP:  82;

FORT DODGE *   CLEAR     64  55  72 S3        30.10S
MASON CITY     CLEAR     62  55  77 S7        30.10R
6HR MIN TEMP:  62; 6HR MAX TEMP:  80;

FOREST CITY *  CLEAR     57  55  94 CALM      30.09R
IOWA FALLS *     N/A     63  57  82 S7        30.12R
$$

IAZ007>011-017>019-026>030-037>042-050>054-066-280700-
   NORTHEAST IOWA

CITY           SKY/WX    TMP DP  RH WIND       PRES   REMARKS
CEDAR RAPIDS   CLEAR     62  59  90 S3        30.12R
6HR MIN TEMP:  61; 6HR MAX TEMP:  77;

CHARLES CITY * CLEAR     64  61  88 S7        30.11R
CLINTON *      CLEAR     64  57  77 S6        30.17R
DECORAH *      MOCLDY    66  57  72 S5        30.10R
DUBUQUE        CLEAR     60  57  89 S7        30.14R
6HR MIN TEMP:  60; 6HR MAX TEMP:  74;

MONTICELLO *   CLEAR     64  59  82 CALM      30.13S
OELWEIN *      CLEAR     63  59  88 SE7       30.13R
WATERLOO       CLEAR     64  56  75 S5        30.10R
6HR MIN TEMP:  62; 6HR MAX TEMP:  79;

$$

IAZ064-065-067-068-078-280700-
   EAST CENTRAL IOWA

CITY           SKY/WX    TMP DP  RH WIND       PRES   REMARKS
DAVENPORT      CLEAR     62  57  83 S6        30.15R
6HR MIN TEMP:  62; 6HR MAX TEMP:  77;

IOWA CITY      CLEAR     62  58  86 CALM      30.15R
6HR MIN TEMP:  62; 6HR MAX TEMP:  78;

MT. PLEASANT * PTCLDY    63  58  83 CALM      30.15R
MUSCATINE *    CLEAR     63  59  88 CALM      30.15R
QUAD CITIES    CLEAR     62  57  83 CALM      30.14R
6HR MIN TEMP:  59; 6HR MAX TEMP:  77;

$$

IAZ062-063-075>077-085>089-095>099-280700-
   SOUTHEAST IOWA

CITY           SKY/WX    TMP DP  RH WIND       PRES   REMARKS
BURLINGTON     PTCLDY    63  59  87 CALM      30.15R
6HR MIN TEMP:  62; 6HR MAX TEMP:  78;

FAIRFIELD *    CLEAR     66  55  68 S6        30.15R
FORT MADISON * CLEAR     63  57  82 S3        30.16R
KEOKUK *       CLEAR     63  61  94 CALM      30.15R
OSKALOOSA *      N/A     63  57  82 S7        30.13S
CENTERVILLE *  CLEAR     63  63 100 SE5       30.15S
OTTUMWA        PTCLDY    63  57  81 SE6       30.13R
6HR MIN TEMP:  63; 6HR MAX TEMP:  78;

WASHINGTON *   CLEAR     63  59  88 S6        30.16R
$$

ABBREVIATIONS USED IN REMARKS
   TC - TEMPERATURES IN CELSIUS
  WCI - WIND CHILL INDEX
   HX - HEAT INDEX
  VSB - VISIBILITY
$$




USA.gov is the U.S. government's official web portal to all federal, state and local government web resources and services.